Weather History for Murray, KY

Change the Weather History Date:

Sunday, August 25, 2013

  Actual Average (KPAH) Record (KPAH)
Temperature  
Mean Temperature 75 °F 77 °F  
Max Temperature 84 °F 89 °F 103 °F (1943)
Min Temperature 66 °F 65 °F 53 °F (1984)
Degree Days  
Heating Degree Days 0 0  
Month to date heating degree days 0  
Since 1 June heating degree days 4  
Since 1 July heating degree days 0  
Cooling Degree Days 10 12  
Month to date cooling degree days 320  
Year to date cooling degree days 1243  
Since 1 June cooling degree days 1071  
Growing Degree Days 25 (Base 50)    
Moisture  
Dew Point 70 °F    
Average Humidity 83    
Maximum Humidity 100    
Minimum Humidity 62    
Precipitation  
Precipitation 0.00 in 0.09 in 1.90 in (1962)
Month to date precipitation 2.25  
Year to date precipitation 31.97  
Snow  
Snow 0.00 in 0.00 in - ()
Month to date snowfall 0.0  
Since 1 June snowfall 0.0  
Since 1 July snowfall 0.0  
Snow Depth -    
Sea Level Pressure  
Sea Level Pressure 30.25 in    
Wind  
Wind Speed 4 mph (SSE)    
Max Wind Speed 9 mph    
Max Gust Speed 16 mph    
Visibility 10 miles    
Events      
T = Trace of Precipitation, MM = Missing Value Source: NWS Daily Summary

Daily Weather History Graph

Daily Weather History Graph

Search for Another Location

Airport:

Trip Planner

Search our weather history database for the weather conditions in past years. The results will help you decide how hot, cold, wet, or windy it might be!

Date:

Astronomy

Aug. 25, 2013 Rise Set
Actual Time 6:19 AM CDT 7:31 PM CDT
Civil Twilight 5:52 AM CDT 7:57 PM CDT
Nautical Twilight 5:20 AM CDT 8:29 PM CDT
Astronomical Twilight 4:47 AM CDT 9:02 PM CDT
Moon 10:12 PM CDT (8/25) 11:11 AM CDT (8/25)
Length of Visible Light 14h 05m
Length of Day
13h 11m
Waning Gibbous, 75% of the Moon is Illuminated
Aug 25
Waning Gibbous
Aug 28
Last Quarter
Sep 5
New
Sep 12
First Quarter
Sep 19
Full

Hourly Weather History & Observations

Time (CDT) Temp. Heat Index Dew Point Humidity Pressure Visibility Wind Dir Wind Speed Gust Speed Precip Events Conditions
12:15 AM 71.6 °F - 66.2 °F 83% 30.21 in 10.0 mi East 4.6 mph - N/A   Clear
12:35 AM 71.6 °F - 66.2 °F 83% 30.21 in 10.0 mi East 3.5 mph - N/A   Unknown
12:55 AM 69.8 °F - 66.2 °F 88% 30.21 in 10.0 mi East 4.6 mph - N/A   Unknown
1:15 AM 68.0 °F - 66.2 °F 94% 30.21 in 10.0 mi East 3.5 mph - N/A   Clear
1:35 AM 68.0 °F - 66.2 °F 94% 30.21 in 10.0 mi East 3.5 mph - N/A   Clear
1:55 AM 68.0 °F - 66.2 °F 94% 30.21 in 10.0 mi East 3.5 mph - N/A   Clear
2:15 AM 68.0 °F - 64.4 °F 88% 30.21 in 10.0 mi Calm Calm - N/A   Clear
2:35 AM 68.0 °F - 64.4 °F 88% 30.21 in 10.0 mi Calm Calm - N/A   Unknown
2:55 AM 68.0 °F - 64.4 °F 88% 30.21 in 10.0 mi East 3.5 mph - N/A   Unknown
3:15 AM 66.2 °F - 64.4 °F 94% 30.21 in 10.0 mi East 3.5 mph - N/A   Scattered Clouds
3:35 AM 66.2 °F - 64.4 °F 94% 30.22 in 10.0 mi ESE 3.5 mph - N/A   Scattered Clouds
3:55 AM 66.2 °F - 64.4 °F 94% 30.22 in 10.0 mi Calm Calm - N/A   Partly Cloudy
4:15 AM 66.2 °F - 64.4 °F 94% 30.23 in 10.0 mi Calm Calm - N/A   Clear
4:35 AM 66.2 °F - 64.4 °F 94% 30.24 in 10.0 mi Calm Calm - N/A   Partly Cloudy
4:55 AM 68.0 °F - 64.4 °F 88% 30.24 in 10.0 mi Calm Calm - N/A   Mostly Cloudy
5:15 AM 68.0 °F - 64.4 °F 88% 30.25 in 10.0 mi Calm Calm - N/A   Scattered Clouds
5:35 AM 68.0 °F - 64.4 °F 88% 30.25 in 10.0 mi Calm Calm - N/A   Partly Cloudy
5:55 AM 68.0 °F - 64.4 °F 88% 30.25 in 10.0 mi Calm Calm - N/A   Scattered Clouds
6:15 AM 68.0 °F - 66.2 °F 94% 30.26 in 10.0 mi Calm Calm - N/A   Partly Cloudy
6:35 AM 68.0 °F - 66.2 °F 94% 30.27 in 10.0 mi South 4.6 mph - N/A   Clear
6:55 AM 69.8 °F - 68.0 °F 94% 30.27 in 10.0 mi South 6.9 mph - N/A   Clear
7:15 AM 71.6 °F - 68.0 °F 88% 30.28 in 10.0 mi South 5.8 mph - N/A   Clear
7:35 AM 71.6 °F - 68.0 °F 88% 30.28 in 10.0 mi South 6.9 mph - N/A   Clear
7:55 AM 73.4 °F - 69.8 °F 88% 30.28 in 10.0 mi South 9.2 mph - N/A   Clear
8:15 AM 73.4 °F - 69.8 °F 88% 30.29 in 10.0 mi South 8.1 mph - N/A   Clear
8:35 AM 75.2 °F - 69.8 °F 83% 30.29 in 10.0 mi South 5.8 mph - N/A   Clear
8:55 AM 75.2 °F - 71.6 °F 89% 30.29 in 10.0 mi South 9.2 mph - N/A   Clear
9:15 AM 77.0 °F - 71.6 °F 83% 30.29 in 10.0 mi South 5.8 mph - N/A   Clear
9:35 AM 77.0 °F - 71.6 °F 83% 30.29 in 10.0 mi South 9.2 mph - N/A   Clear
9:55 AM 77.0 °F - 71.6 °F 83% 30.30 in 10.0 mi South 8.1 mph - N/A   Clear
10:15 AM 77.0 °F - 71.6 °F 83% 30.30 in 10.0 mi SSE 9.2 mph 16.1 mph N/A   Scattered Clouds
10:55 AM 80.6 °F 84.6 °F 71.6 °F 74% 30.30 in 10.0 mi South 5.8 mph - N/A   Mostly Cloudy
11:15 AM 80.6 °F 85.4 °F 73.4 °F 79% 30.29 in 10.0 mi South 6.9 mph - N/A   Mostly Cloudy
11:35 AM 82.4 °F 88.2 °F 73.4 °F 74% 30.29 in 10.0 mi SSE 8.1 mph - N/A   Mostly Cloudy
11:55 AM 80.6 °F 85.4 °F 73.4 °F 79% 30.29 in 10.0 mi South 5.8 mph - N/A   Mostly Cloudy
12:15 PM 82.4 °F 88.2 °F 73.4 °F 74% 30.28 in 10.0 mi South 5.8 mph - N/A   Overcast
12:35 PM 82.4 °F 88.2 °F 73.4 °F 74% 30.28 in 10.0 mi SSE 5.8 mph - N/A   Mostly Cloudy
12:55 PM 82.4 °F 88.2 °F 73.4 °F 74% 30.27 in 10.0 mi South 4.6 mph - N/A   Mostly Cloudy
1:15 PM 82.4 °F 88.2 °F 73.4 °F 74% 30.26 in 10.0 mi South 8.1 mph - N/A   Mostly Cloudy
1:35 PM 84.2 °F 90.9 °F 73.4 °F 70% 30.25 in 10.0 mi South 5.8 mph - N/A   Partly Cloudy
1:55 PM 84.2 °F 89.6 °F 71.6 °F 66% 30.25 in 10.0 mi SE 5.8 mph - N/A   Scattered Clouds
2:15 PM 84.2 °F 89.6 °F 71.6 °F 66% 30.24 in 10.0 mi SE 5.8 mph - N/A   Mostly Cloudy
2:35 PM 84.2 °F 88.4 °F 69.8 °F 62% 30.24 in 10.0 mi SSE 3.5 mph - N/A   Mostly Cloudy
2:55 PM 84.2 °F 89.6 °F 71.6 °F 66% 30.23 in 10.0 mi ESE 3.5 mph - N/A   Mostly Cloudy
3:15 PM 84.2 °F 89.6 °F 71.6 °F 66% 30.23 in 10.0 mi SSE 4.6 mph - N/A   Mostly Cloudy
3:35 PM 84.2 °F 89.6 °F 71.6 °F 66% 30.23 in 10.0 mi ESE 4.6 mph - N/A   Mostly Cloudy
3:55 PM 84.2 °F 89.6 °F 71.6 °F 66% 30.22 in 10.0 mi South 8.1 mph - N/A   Mostly Cloudy
4:15 PM 84.2 °F 88.4 °F 69.8 °F 62% 30.22 in 10.0 mi South 8.1 mph - N/A   Partly Cloudy
4:35 PM 84.2 °F 89.6 °F 71.6 °F 66% 30.22 in 10.0 mi South 5.8 mph - N/A   Clear
4:55 PM 84.2 °F 89.6 °F 71.6 °F 66% 30.22 in 10.0 mi South 5.8 mph - N/A   Clear
5:15 PM 84.2 °F 89.6 °F 71.6 °F 66% 30.22 in 10.0 mi South 6.9 mph - N/A   Clear
5:35 PM 84.2 °F 89.6 °F 71.6 °F 66% 30.22 in 10.0 mi SSW 3.5 mph - N/A   Clear
5:55 PM 84.2 °F 89.6 °F 71.6 °F 66% 30.22 in 10.0 mi South 3.5 mph - N/A   Clear
6:15 PM 82.4 °F 87.2 °F 71.6 °F 70% 30.22 in 10.0 mi South 4.6 mph - N/A   Clear
6:35 PM 82.4 °F 87.2 °F 71.6 °F 70% 30.22 in 10.0 mi South 3.5 mph - N/A   Clear
6:55 PM 80.6 °F 84.6 °F 71.6 °F 74% 30.22 in 10.0 mi Calm Calm - N/A   Clear
7:15 PM 80.6 °F 84.6 °F 71.6 °F 74% 30.22 in 10.0 mi Calm Calm - N/A   Clear
7:35 PM 77.0 °F - 71.6 °F 83% 30.23 in 10.0 mi Calm Calm - N/A   Clear
7:55 PM 75.2 °F - 71.6 °F 89% 30.23 in 10.0 mi Calm Calm - N/A   Clear
8:15 PM 75.2 °F - 71.6 °F 89% 30.23 in 10.0 mi Calm Calm - N/A   Unknown
8:35 PM 75.2 °F - 71.6 °F 89% 30.24 in 10.0 mi Calm Calm - N/A   Unknown
8:55 PM 73.4 °F - 71.6 °F 94% 30.24 in 6.0 mi SSE 4.6 mph - N/A   Unknown
9:15 PM 73.4 °F - 71.6 °F 94% 30.25 in 6.0 mi SE 3.5 mph - N/A   Clear
9:35 PM 73.4 °F - 71.6 °F 94% 30.26 in 6.0 mi SSE 3.5 mph - N/A   Clear
9:55 PM 73.4 °F - 71.6 °F 94% 30.26 in 7.0 mi South 4.6 mph - N/A   Scattered Clouds
10:15 PM 73.4 °F - 71.6 °F 94% 30.26 in 8.0 mi Calm Calm - N/A   Partly Cloudy
10:35 PM 73.4 °F - 71.6 °F 94% 30.26 in 7.0 mi Calm Calm - N/A   Clear
10:55 PM 71.6 °F - 69.8 °F 94% 30.26 in 3.0 mi South 3.5 mph - N/A   Unknown
11:15 PM 71.6 °F - 71.6 °F 100% 30.27 in 6.0 mi SSE 3.5 mph - N/A   Clear
11:35 PM 73.4 °F - 71.6 °F 94% 30.26 in 7.0 mi SSE 4.6 mph - N/A   Clear
11:55 PM 71.6 °F - 69.8 °F 94% 30.26 in 8.0 mi SSE 4.6 mph - N/A   Clear